Weather History for KDYT - August, 2013

Change the Weather History Date:

Thursday, August 1, 2013

  Actual Average Record
Temperature  
Mean Temperature 66 °F -  
Max Temperature 77 °F 79 °F 92 °F (1957)
Min Temperature 55 °F 57 °F 40 °F (1956)
Cooling Degree Days 1    
Growing Degree Days 16 (Base 50)    
Moisture  
Dew Point 54 °F    
Average Humidity 65    
Maximum Humidity 88    
Minimum Humidity 44    
Precipitation  
Precipitation 0.00 in - - ()
Sea Level Pressure  
Sea Level Pressure 29.92 in    
Wind  
Wind Speed 9 mph (West)    
Max Wind Speed 18 mph    
Max Gust Speed 25 mph    
Visibility 10 miles    
Events Rain    
Averages and records for this station are not official NWS values.
T = Trace of Precipitation, MM = Missing Value Source: NWS Daily Summary

Daily Weather History Graph

Daily Weather History Graph

Search for Another Location

Airport or City:

Trip Planner

Search our weather history database for the weather conditions in past years. The results will help you decide how hot, cold, wet, or windy it might be!

Date:

Astronomy

Aug. 01, 2013 Rise Set
Actual Time 5:48 AM CDT 8:39 PM CDT
Civil Twilight 5:13 AM CDT 9:14 PM CDT
Nautical Twilight 4:28 AM CDT 9:59 PM CDT
Astronomical Twilight 3:35 AM CDT 10:51 PM CDT
Moon 1:23 AM CDT (8/1) 4:51 PM CDT (8/1)
Length of Visible Light 16h 00m
Length of Day
14h 50m
Waning Crescent, 23% of the Moon is Illuminated
Aug 1
Waning Crescent
Aug 6
New
Aug 14
First Quarter
Aug 20
Full
Aug 28
Last Quarter

Hourly Weather History & Observations

Time (CDT) Temp. Dew Point Humidity Pressure Visibility Wind Dir Wind Speed Gust Speed Precip Events Conditions
12:14 AM 64.4 °F 51.8 °F 64% 29.97 in 10.0 mi WSW 6.9 mph - N/A   Clear
12:33 AM 64.4 °F 51.8 °F 64% 29.97 in 10.0 mi WSW 10.4 mph - N/A   Clear
12:54 AM 64.4 °F 53.6 °F 68% 29.97 in 10.0 mi WSW 9.2 mph - N/A   Clear
1:13 AM 62.6 °F 53.6 °F 72% 29.97 in 10.0 mi WSW 8.1 mph - N/A   Clear
1:33 AM 62.6 °F 53.6 °F 72% 29.97 in 10.0 mi West 9.2 mph - N/A   Clear
1:54 AM 62.6 °F 53.6 °F 72% 29.96 in 10.0 mi West 10.4 mph - N/A   Clear
2:13 AM 62.6 °F 53.6 °F 72% 29.97 in 10.0 mi West 10.4 mph - N/A   Clear
2:33 AM 62.6 °F 53.6 °F 72% 29.97 in 10.0 mi West 9.2 mph - N/A   Clear
2:54 AM 62.6 °F 53.6 °F 72% 29.97 in 10.0 mi WSW 9.2 mph - N/A   Clear
3:13 AM 60.8 °F 53.6 °F 77% 29.97 in 10.0 mi SW 9.2 mph - N/A   Clear
3:33 AM 60.8 °F 53.6 °F 77% 29.96 in 10.0 mi SW 6.9 mph - N/A   Clear
3:54 AM 59.0 °F 53.6 °F 82% 29.96 in 10.0 mi SSW 8.1 mph - N/A   Clear
4:13 AM 57.2 °F 53.6 °F 88% 29.96 in 10.0 mi SW 8.1 mph - N/A   Clear
4:33 AM 57.2 °F 53.6 °F 88% 29.96 in 10.0 mi SSW 10.4 mph - N/A   Clear
4:54 AM 55.4 °F 51.8 °F 88% 29.96 in 10.0 mi SW 8.1 mph - N/A   Clear
5:13 AM 55.4 °F 51.8 °F 88% 29.96 in 10.0 mi SSW 9.2 mph - N/A   Clear
5:33 AM 55.4 °F 51.8 °F 88% 29.96 in 10.0 mi SW 9.2 mph - N/A   Clear
5:54 AM 55.4 °F 51.8 °F 88% 29.96 in 10.0 mi SW 9.2 mph - N/A   Clear
6:13 AM 55.4 °F 51.8 °F 88% 29.96 in 10.0 mi SW 9.2 mph - N/A   Clear
6:33 AM 55.4 °F 51.8 °F 88% 29.97 in 10.0 mi SSW 8.1 mph - N/A   Clear
6:54 AM 55.4 °F 51.8 °F 88% 29.97 in 10.0 mi SSW 6.9 mph - N/A   Clear
7:13 AM 55.4 °F 51.8 °F 88% 29.97 in 10.0 mi SSW 6.9 mph - N/A   Clear
7:34 AM 57.2 °F 53.6 °F 88% 29.97 in 10.0 mi South 8.1 mph - N/A   Clear
7:53 AM 60.8 °F 53.6 °F 77% 29.97 in 10.0 mi South 10.4 mph - N/A   Clear
8:13 AM 62.6 °F 55.4 °F 77% 29.97 in 10.0 mi SSW 9.2 mph - N/A   Clear
8:34 AM 64.4 °F 55.4 °F 73% 29.97 in 10.0 mi West 9.2 mph - N/A   Clear
8:53 AM 66.2 °F 55.4 °F 68% 29.97 in 10.0 mi WNW 10.4 mph - N/A   Clear
9:13 AM 66.2 °F 55.4 °F 68% 29.97 in 10.0 mi WNW 10.4 mph - N/A   Clear
9:34 AM 69.8 °F 55.4 °F 60% 29.96 in 10.0 mi West 10.4 mph - N/A   Clear
9:53 AM 69.8 °F 53.6 °F 56% 29.96 in 10.0 mi WNW 11.5 mph - N/A   Clear
10:13 AM 69.8 °F 55.4 °F 60% 29.96 in 10.0 mi WNW 10.4 mph - N/A   Clear
10:33 AM 71.6 °F 55.4 °F 57% 29.96 in 10.0 mi WNW 12.7 mph - N/A   Clear
10:53 AM 71.6 °F 55.4 °F 57% 29.96 in 10.0 mi WNW 17.3 mph 20.7 mph N/A   Clear
11:13 AM 71.6 °F 55.4 °F 57% 29.96 in 10.0 mi WNW 13.8 mph 17.3 mph N/A   Clear
11:33 AM 71.6 °F 53.6 °F 53% 29.96 in 10.0 mi West 15.0 mph - N/A   Scattered Clouds
11:54 AM 73.4 °F 53.6 °F 50% 29.96 in 10.0 mi NW 15.0 mph 21.9 mph N/A   Scattered Clouds
12:13 PM 73.4 °F 53.6 °F 50% 29.96 in 10.0 mi WNW 13.8 mph - N/A   Scattered Clouds
12:34 PM 75.2 °F 53.6 °F 47% 29.95 in 10.0 mi West 13.8 mph - N/A   Scattered Clouds
12:53 PM 75.2 °F 53.6 °F 47% 29.95 in 10.0 mi WNW 12.7 mph - N/A   Scattered Clouds
1:14 PM 75.2 °F 51.8 °F 44% 29.94 in 10.0 mi WNW 15.0 mph - N/A   Clear
1:33 PM 75.2 °F 51.8 °F 44% 29.94 in 10.0 mi West 15.0 mph - N/A   Scattered Clouds
1:54 PM 73.4 °F 53.6 °F 50% 29.94 in 10.0 mi West 10.4 mph - N/A   Scattered Clouds
2:13 PM 75.2 °F 55.4 °F 50% 29.93 in 10.0 mi West 10.4 mph - N/A   Scattered Clouds
2:33 PM 75.2 °F 53.6 °F 47% 29.93 in 10.0 mi WNW 9.2 mph - N/A   Scattered Clouds
2:54 PM 75.2 °F 53.6 °F 47% 29.92 in 10.0 mi West 10.4 mph - N/A   Scattered Clouds
3:13 PM 75.2 °F 53.6 °F 47% 29.91 in 10.0 mi WNW 8.1 mph - N/A   Clear
3:34 PM 75.2 °F 53.6 °F 47% 29.91 in 10.0 mi West 10.4 mph - N/A   Scattered Clouds
3:53 PM 75.2 °F 51.8 °F 44% 29.91 in 10.0 mi WNW 9.2 mph - N/A   Scattered Clouds
4:13 PM 75.2 °F 53.6 °F 47% 29.90 in 10.0 mi West 3.5 mph - N/A   Scattered Clouds
4:34 PM 77.0 °F 53.6 °F 44% 29.90 in 10.0 mi WNW 6.9 mph - N/A   Scattered Clouds
4:53 PM 75.2 °F 55.4 °F 50% 29.89 in 10.0 mi WNW 5.8 mph - N/A   Scattered Clouds
5:13 PM 77.0 °F 53.6 °F 44% 29.88 in 10.0 mi West 11.5 mph - N/A   Clear
5:33 PM 77.0 °F 53.6 °F 44% 29.87 in 10.0 mi West 10.4 mph - N/A   Clear
5:53 PM 77.0 °F 55.4 °F 47% 29.86 in 10.0 mi WNW 12.7 mph - N/A   Clear
6:14 PM 77.0 °F 53.6 °F 44% 29.86 in 10.0 mi WNW 8.1 mph - N/A   Clear
6:33 PM 75.2 °F 53.6 °F 47% 29.85 in 10.0 mi WNW 10.4 mph - N/A   Clear
6:53 PM 75.2 °F 53.6 °F 47% 29.86 in 10.0 mi WNW 8.1 mph - N/A   Clear
7:14 PM 75.2 °F 55.4 °F 50% 29.86 in 10.0 mi WNW 8.1 mph - N/A   Clear
7:33 PM 75.2 °F 53.6 °F 47% 29.86 in 10.0 mi WNW 6.9 mph - N/A   Clear
7:53 PM 75.2 °F 53.6 °F 47% 29.85 in 10.0 mi WNW 6.9 mph - N/A   Clear
8:14 PM 66.2 °F 57.2 °F 73% 29.85 in 10.0 mi ENE 8.1 mph - N/A   Clear
8:33 PM 64.4 °F 59.0 °F 83% 29.85 in 10.0 mi East 5.8 mph - N/A   Clear
8:53 PM 64.4 °F 59.0 °F 83% 29.85 in 10.0 mi Calm Calm - N/A   Scattered Clouds
9:14 PM 64.4 °F 57.2 °F 77% 29.85 in 10.0 mi North 3.5 mph - N/A   Clear
9:33 PM 62.6 °F 57.2 °F 82% 29.85 in 10.0 mi North 3.5 mph - N/A   Scattered Clouds
9:53 PM 64.4 °F 57.2 °F 77% 29.85 in 10.0 mi North 4.6 mph - N/A   Scattered Clouds
10:14 PM 64.4 °F 55.4 °F 73% 29.85 in 10.0 mi Calm Calm - N/A   Scattered Clouds
10:33 PM 66.2 °F 55.4 °F 68% 29.84 in 10.0 mi Calm Calm - N/A   Mostly Cloudy
10:54 PM 66.2 °F 59.0 °F 78% 29.84 in 10.0 mi Calm Calm - N/A   Mostly Cloudy
11:13 PM 66.2 °F 60.8 °F 83% 29.84 in 10.0 mi Calm Calm - N/A Rain Rain
11:33 PM 66.2 °F 60.8 °F 83% 29.83 in 10.0 mi South 6.9 mph - N/A   Mostly Cloudy
11:54 PM 66.2 °F 59.0 °F 78% 29.86 in 7.0 mi NW 18.4 mph 25.3 mph N/A Rain Rain